[[{"header":{"parameterUnit":"m.s-1","parameterCategory":1,"la1":30.2991,"la2":30.254,"lo1":-89.0895,"lo2":-89.0444,"dy":0.0017,"dx":0.0017,"nx":28,"ny":28,"refTime":"2024-07-02T03:00:00:Z","depth":0,"parameterNumber":2,"parameterNumberName":"U-component_of_WINDS"},"data":[0,0,0,0,0,0,0,0,0,0,0,0,0,0,0,0,0,0,0,0,0,0,0,0,0,0,0,0,0,0,0,0,0,0,0,0,0,0,0,0,0,0,0,0,0,0,0,0,0,0,0,0,0,0,0,0,0,0,-0.898,-0.8979,0,-0.8864,-0.8863,-0.8861,-0.8834,-0.8835,-0.8836,-0.8837,-0.8715,-0.8711,-0.8707,0,0,0,0,0,0,0,0,0,0,0,0,0,-0.9176,-0.9173,-0.898,-0.8979,-0.8977,-0.8864,-0.8863,-0.8861,-0.8834,-0.8835,-0.8836,-0.8837,-0.8716,-0.8712,-0.8707,0,0,0,0,0,0,0,0,0,0,0,0,0,-0.9079,-0.9172,-0.898,-0.895,-0.8946,-0.8864,-0.8863,-0.8861,-0.8834,-0.8835,-0.8837,-0.8838,-0.8718,-0.8712,-0.8706,-0.8645,0,0,-0.8688,-0.8685,0,0,0,0,0,0,0,0,-0.9084,-0.9072,-0.8956,-0.8952,-0.8948,-0.8865,-0.8887,-0.8788,-0.8834,-0.8877,-0.8837,-0.8838,-0.8764,-0.8754,-0.873,-0.8639,-0.8634,-0.8687,-0.8684,-0.8681,-0.8679,0,0,0,0,0,0,0,-0.9091,-0.9076,-0.8934,-0.8955,-0.8949,-0.8942,-0.8929,-0.8868,-0.8815,-0.8873,-0.8871,-0.8858,-0.8762,-0.8735,-0.8727,-0.8632,-0.8688,-0.8682,-0.8679,-0.8676,-0.8486,-0.8485,0,0,0,0,0,0,-0.9103,-0.9082,-0.8938,-0.8931,-0.9021,-0.8937,-0.8923,-0.889,-0.8815,-0.8805,-0.8857,-0.8857,-0.8745,-0.8734,-0.8722,-0.8645,-0.8681,-0.8676,-0.8672,-0.8488,-0.8486,-0.8484,0,0,0,0,0,0,-0.9108,-0.9091,-0.8942,-0.9006,-0.8986,-0.8933,-0.8896,-0.8887,-0.8861,-0.8803,-0.8793,-0.884,-0.8746,-0.8731,-0.8665,-0.8641,-0.8673,-0.8667,-0.8489,-0.8487,-0.8485,-0.8492,0,0,0,0,0,0,-0.9114,-0.9093,-0.9069,-0.9005,-0.8983,-0.8887,-0.8894,-0.8884,-0.8851,-0.885,-0.8785,-0.8775,-0.8745,-0.8674,-0.8659,-0.8633,-0.8663,-0.8491,-0.8488,-0.8486,-0.8493,-0.849,-0.8487,0,0,0,0,0,-0.9121,-0.9075,-0.9068,-0.9051,-0.8953,-0.8886,-0.8873,-0.8841,-0.8849,-0.8825,-0.8788,-0.8777,-0.8646,-0.8667,-0.865,-0.8622,-0.8492,-0.8489,-0.8486,-0.8495,-0.8491,-0.8487,0,0,0,0,0,0,-0.9136,-0.9066,-0.9058,-0.899,-0.8945,-0.8882,-0.885,-0.8838,-0.8788,-0.8789,-0.875,-0.8736,-0.8672,-0.8641,-0.8665,-0.8559,-0.8569,-0.8563,-0.8582,-0.8578,-0.8575,-0.8583,-0.8658,0,0,0,0,0,-0.9132,-0.9085,-0.9026,-0.8972,-0.8949,-0.8904,-0.8874,-0.8853,-0.8804,-0.8784,-0.8742,-0.8694,-0.8642,-0.8608,-0.8557,-0.8489,-0.8474,-0.8462,-0.8459,-0.8456,-0.845,-0.8412,-0.8406,-0.8473,-0.8473,-0.8474,0,0,-0.9122,-0.9078,-0.905,-0.8974,-0.8936,-0.8887,-0.8888,-0.8836,-0.8799,-0.8775,-0.8711,-0.8679,-0.8622,-0.8555,-0.8523,-0.8527,-0.8429,-0.8452,-0.8451,-0.8446,-0.8408,-0.8402,-0.8396,-0.8471,-0.8472,-0.8472,0,0,-0.908,-0.9042,-0.8993,-0.8955,-0.8898,-0.8868,-0.8857,-0.8796,-0.8774,-0.8709,-0.8691,-0.8646,-0.8557,-0.8518,-0.8486,-0.843,-0.8418,-0.8414,-0.8398,-0.8361,-0.8356,-0.8351,-0.833,-0.8323,-0.8409,-0.8409,-0.8409,0,-0.9074,-0.9001,-0.8969,-0.8918,-0.8885,-0.8863,-0.8813,-0.8777,-0.8706,-0.8684,-0.8689,-0.8578,-0.8538,-0.8462,-0.8448,-0.8423,-0.8408,-0.8421,-0.8359,-0.8354,-0.8349,-0.8329,-0.8321,-0.8409,-0.8409,-0.8409,-0.8409,0,-0.8997,-0.8946,-0.8913,-0.8847,-0.881,-0.8759,-0.8719,-0.8686,-0.8669,-0.8638,-0.8572,-0.8524,-0.8463,-0.8444,-0.8426,-0.8365,-0.8369,-0.8367,-0.8376,-0.8343,-0.8323,-0.8316,-0.8409,-0.8409,-0.8409,-0.8409,0,0,-0.896,-0.8877,-0.8865,-0.8835,-0.8771,-0.8731,-0.8679,-0.8621,-0.8592,-0.8545,-0.85,-0.8426,-0.8425,-0.8389,-0.8367,-0.8335,-0.8293,-0.8337,-0.8335,-0.833,-0.8222,-0.8223,-0.8215,-0.8285,-0.8283,-0.8282,-0.8227,0,-0.8909,-0.8817,-0.8788,-0.8711,-0.8663,-0.8643,-0.8598,-0.8553,-0.8524,-0.8479,-0.8446,-0.8394,-0.8396,-0.8374,-0.8342,-0.8305,-0.827,-0.8309,-0.8242,-0.824,-0.8257,-0.8205,-0.8205,-0.8155,-0.8219,-0.8217,-0.8216,0,-0.8837,-0.8789,-0.8708,-0.8651,-0.863,-0.859,-0.8534,-0.8491,-0.8441,-0.8421,-0.8382,-0.8363,-0.8308,-0.8321,-0.8245,-0.8272,-0.8243,-0.8221,-0.8218,-0.821,-0.8226,-0.8194,-0.8138,-0.8131,-0.8204,-0.8205,-0.8206,0,-0.8818,-0.8733,-0.8673,-0.8648,-0.8579,-0.8552,-0.8522,-0.8473,-0.844,-0.8391,-0.8369,-0.8314,-0.8283,-0.8241,-0.8207,-0.822,-0.8134,-0.8144,-0.8116,-0.8116,-0.8097,-0.8099,-0.8035,-0.808,-0.808,-0.8081,-0.8081,0,-0.8764,-0.8715,-0.8664,-0.8627,-0.8572,-0.8538,-0.8484,-0.8453,-0.8409,-0.8366,-0.8344,-0.8304,-0.8262,-0.8216,-0.8189,-0.813,-0.8116,-0.8099,-0.8092,-0.81,-0.8102,-0.808,-0.8082,-0.8079,-0.8079,-0.8079,-0.808,0,-0.8733,-0.8696,-0.863,-0.8571,-0.8555,-0.8517,-0.8466,-0.8429,-0.84,-0.8345,-0.833,-0.8283,-0.8227,-0.819,-0.8119,-0.8101,-0.8036,-0.803,-0.8053,-0.805,-0.8023,-0.8026,-0.7943,-0.793,-0.7984,-0.7984,-0.7983,0,-0.87,-0.8662,-0.8599,-0.8569,-0.8539,-0.8491,-0.8457,-0.8423,-0.8388,-0.8328,-0.8299,-0.8242,-0.8195,-0.8108,-0.8067,-0.8012,-0.8004,-0.7979,-0.7996,-0.8006,-0.8003,-0.8006,-0.8002,-0.7976,-0.7976,-0.7975,-0.7975,0,-0.8647,-0.8631,-0.8584,-0.853,-0.8491,-0.8447,-0.8402,-0.8379,-0.8336,-0.8299,-0.8242,-0.8206,-0.8134,-0.8078,-0.802,-0.7988,-0.7974,-0.797,-0.7961,-0.7968,-0.7983,-0.7974,-0.8046,-0.7972,-0.7972,-0.7973,-0.7973,-0.7973,-0.8613,-0.8579,-0.8529,-0.8477,-0.8441,-0.84,-0.8363,-0.8329,-0.8281,-0.822,-0.8203,-0.8144,-0.8094,-0.8015,-0.7983,-0.7936,-0.7938,-0.7924,-0.7921,-0.7918,-0.7918,-0.7991,-0.7925,-0.7925,-0.7925,-0.7925,-0.7925,0,-0.8558,-0.8526,-0.8478,-0.8418,-0.8377,-0.8368,-0.8319,-0.8285,-0.8234,-0.8189,-0.8144,-0.8079,-0.8025,-0.798,-0.7924,-0.7895,-0.7887,-0.7881,-0.7883,-0.7876,-0.7919,-0.7933,-0.7889,-0.7889,-0.7889,-0.7889,-0.7889,-0.7889,-0.8525,-0.8466,-0.8444,-0.8367,-0.8334,-0.8277,-0.825,-0.8212,-0.8176,-0.8105,-0.806,-0.8032,-0.7987,-0.7927,-0.7877,-0.7865,-0.7845,-0.7841,-0.7828,-0.7869,-0.7873,-0.7877,-0.7889,-0.7837,-0.7837,-0.7788,-0.7788,-0.7787]},{"header":{"parameterUnit":"m.s-1","parameterCategory":1,"la1":30.2991,"la2":30.254,"lo1":-89.0895,"lo2":-89.0444,"dy":0.0017,"dx":0.0017,"nx":28,"ny":28,"refTime":"2024-07-02T03:00:00:Z","depth":0,"parameterNumber":3,"parameterNumberName":"V-component_of_WINDS"},"data":[0,0,0,0,0,0,0,0,0,0,0,0,0,0,0,0,0,0,0,0,0,0,0,0,0,0,0,0,0,0,0,0,0,0,0,0,0,0,0,0,0,0,0,0,0,0,0,0,0,0,0,0,0,0,0,0,0,0,3.5693,3.5693,0,3.569,3.569,3.569,3.5705,3.5705,3.5706,3.5706,3.5699,3.5699,3.5698,0,0,0,0,0,0,0,0,0,0,0,0,0,3.571,3.571,3.5693,3.5693,3.5693,3.569,3.569,3.569,3.5705,3.5705,3.5706,3.5706,3.57,3.5699,3.5698,0,0,0,0,0,0,0,0,0,0,0,0,0,3.5704,3.571,3.5693,3.57,3.5701,3.569,3.569,3.569,3.5704,3.5705,3.5706,3.5706,3.57,3.5699,3.5698,3.5679,0,0,3.5695,3.5695,0,0,0,0,0,0,0,0,3.5705,3.5704,3.5699,3.57,3.5701,3.5699,3.5693,3.5686,3.5704,3.5703,3.5706,3.5707,3.5698,3.5698,3.5695,3.5679,3.5679,3.5695,3.5695,3.5694,3.5694,0,0,0,0,0,0,0,3.5705,3.5704,3.5692,3.5699,3.57,3.5703,3.5703,3.5692,3.5697,3.5703,3.5704,3.5704,3.5699,3.5696,3.5695,3.5679,3.5695,3.5694,3.5694,3.5694,3.5646,3.5646,0,0,0,0,0,0,3.5705,3.5704,3.5692,3.5692,3.5704,3.5702,3.5702,3.5698,3.5697,3.5698,3.5703,3.5705,3.5697,3.5696,3.5695,3.5673,3.5694,3.5694,3.5693,3.5647,3.5646,3.5645,0,0,0,0,0,0,3.5705,3.5704,3.5692,3.5698,3.5697,3.5701,3.5697,3.5698,3.5696,3.5697,3.5698,3.57,3.5698,3.5696,3.5683,3.5673,3.5693,3.5692,3.5648,3.5647,3.5646,3.5628,0,0,0,0,0,0,3.5706,3.5704,3.5697,3.5698,3.5697,3.5681,3.5696,3.5697,3.5694,3.5696,3.5694,3.5695,3.5698,3.5685,3.5682,3.5672,3.5692,3.5649,3.5647,3.5646,3.563,3.5627,3.5624,0,0,0,0,0,3.5706,3.5692,3.5697,3.5695,3.5689,3.5681,3.568,3.5685,3.5693,3.5687,3.5688,3.5695,3.5675,3.5683,3.5681,3.567,3.565,3.5648,3.5646,3.5631,3.5627,3.5624,0,0,0,0,0,0,3.5688,3.5692,3.5698,3.5683,3.5682,3.5683,3.5675,3.5681,3.5676,3.5678,3.5684,3.5683,3.5669,3.5668,3.5678,3.5652,3.5663,3.5661,3.5653,3.5649,3.5646,3.5646,3.5691,0,0,0,0,0,3.5683,3.5677,3.568,3.5667,3.5666,3.567,3.5667,3.5672,3.567,3.5669,3.5669,3.5666,3.5659,3.5654,3.5648,3.563,3.5629,3.5621,3.5619,3.5616,3.5614,3.5604,3.5601,3.564,3.564,3.564,0,0,3.5671,3.5673,3.5668,3.5664,3.5663,3.5655,3.567,3.5661,3.5656,3.5667,3.5655,3.5655,3.5652,3.5636,3.563,3.5635,3.5603,3.5614,3.5612,3.5611,3.5602,3.5598,3.5595,3.5639,3.5639,3.5639,0,0,3.5646,3.5647,3.5636,3.5635,3.5635,3.5638,3.5635,3.5636,3.5636,3.5625,3.5633,3.5626,3.5614,3.5612,3.5609,3.5583,3.5589,3.5581,3.5566,3.5556,3.5553,3.555,3.5541,3.5537,3.5579,3.5579,3.5579,0,3.5632,3.5622,3.563,3.5621,3.5618,3.563,3.5618,3.5617,3.5613,3.5611,3.5618,3.5603,3.5602,3.5586,3.558,3.5577,3.5574,3.5581,3.5553,3.555,3.5548,3.5539,3.5535,3.5578,3.5578,3.5578,3.5578,0,3.5604,3.5597,3.5588,3.5586,3.5582,3.5572,3.5577,3.5573,3.5578,3.558,3.5567,3.5566,3.556,3.5557,3.5561,3.5541,3.5545,3.5552,3.5564,3.5543,3.5534,3.5531,3.5576,3.5577,3.5577,3.5577,0,0,3.5566,3.5569,3.5566,3.5565,3.5565,3.5559,3.5549,3.5544,3.554,3.5537,3.5529,3.5519,3.5526,3.5522,3.5527,3.5518,3.5498,3.5527,3.5527,3.5521,3.5475,3.5469,3.5465,3.5502,3.5502,3.5501,3.5475,0,3.5541,3.5526,3.5533,3.5516,3.5509,3.552,3.5511,3.551,3.5512,3.5506,3.5508,3.55,3.551,3.5509,3.5501,3.5502,3.5488,3.5504,3.5493,3.5493,3.5493,3.546,3.5454,3.5429,3.5472,3.5471,3.5471,0,3.551,3.5507,3.549,3.5492,3.5489,3.5481,3.5477,3.5472,3.547,3.5472,3.5469,3.5475,3.5464,3.5477,3.5462,3.5473,3.5469,3.5469,3.5468,3.5466,3.548,3.5457,3.5422,3.5418,3.5466,3.5466,3.5467,0,3.5484,3.5476,3.5465,3.5463,3.5465,3.5459,3.5459,3.5459,3.5455,3.5451,3.5449,3.5444,3.544,3.5436,3.544,3.5449,3.5424,3.5437,3.5425,3.5425,3.5418,3.5418,3.5381,3.5417,3.5417,3.5417,3.5417,0,3.5455,3.5444,3.5453,3.5446,3.5433,3.5441,3.5428,3.543,3.5429,3.5422,3.5431,3.5424,3.543,3.5423,3.5426,3.5413,3.5412,3.5412,3.5413,3.5411,3.5411,3.5408,3.5409,3.5416,3.5416,3.5417,3.5417,0,3.5423,3.5429,3.5417,3.542,3.5421,3.5411,3.5413,3.5406,3.5409,3.54,3.5398,3.5402,3.5395,3.5399,3.539,3.5393,3.5376,3.5379,3.5376,3.5377,3.5364,3.5365,3.5322,3.5317,3.5357,3.5357,3.5357,0,3.5404,3.5396,3.5398,3.5394,3.5394,3.5388,3.5385,3.5392,3.5388,3.5386,3.5379,3.5373,3.5368,3.5355,3.5357,3.535,3.5353,3.5339,3.5352,3.535,3.5352,3.5352,3.5351,3.5336,3.5335,3.5335,3.5335,0,3.5369,3.5372,3.5368,3.5364,3.5361,3.5358,3.5356,3.5352,3.536,3.5355,3.5348,3.5344,3.5336,3.5329,3.5324,3.5323,3.533,3.5331,3.5327,3.5325,3.5323,3.5323,3.5368,3.5331,3.5332,3.5332,3.5332,3.5332,3.5342,3.5336,3.5336,3.5331,3.5331,3.5329,3.5322,3.5325,3.5319,3.5314,3.5319,3.531,3.5309,3.5303,3.5301,3.5294,3.5299,3.5295,3.5293,3.5292,3.529,3.5325,3.5293,3.5293,3.5293,3.5293,3.5293,0,3.5307,3.5308,3.5304,3.5301,3.5297,3.5305,3.5303,3.5299,3.5291,3.529,3.5285,3.5277,3.5271,3.5272,3.5266,3.526,3.5263,3.5258,3.5258,3.5257,3.5285,3.5289,3.5256,3.5256,3.5256,3.5256,3.5256,3.5256,3.5288,3.5277,3.5281,3.5269,3.5271,3.5263,3.5261,3.5259,3.5258,3.5249,3.5244,3.5246,3.5245,3.5239,3.5233,3.5234,3.5231,3.5224,3.5226,3.5252,3.5255,3.5259,3.5262,3.5224,3.5224,3.5199,3.5198,3.5198]}]]